Погода в Жаргаланте

Россия / Республика Бурятия     51°24′37″N   106°39′56″E
темп.,
°C
ветер,
м/с
пор.,
м/с
влажн.,
%
обл.,
%
осадки,
мм/ч
давл.,
гПа
погр.,
м
20 января, чт
чт2023:00−18ссз1199100 0.1 103110
02:00−18с1199100 0.1 103110
05:00−16всв1196100 0.1 103058
08:00−15в1196100 0.8 103148
11:00−14вюв119476 0.2 103186
14:00−11вюв118884 0.3 1030222
17:00−14вюв119870 0.1 10329
20:00−19сз219971 0.1 103510
21 января, пт
пт2123:00−20зсз219962 0.0 103610
02:00−20сз119999 0.0 103710
05:00−20сз1199100 0.0 10379
08:00−22зсз1110068 0.0 10399
11:00−17юв109581 0.0 103864
14:00−13юв119275 0.0 1035168
17:00−18ссз009964 0.0 10369
20:00−20сз11100100 0.1 10379
22 января, сб
сб2223:00−18ссз1199100 0.0 103610
02:00−17ссв1198100 0.0 103617
05:00−16св1197100 0.0 103542
08:00−17св1198100 0.0 103511
11:00−15всв119399 0.0 1036105
14:00−13в1188100 0.0 1033189
17:00−13в1196100 0.1 103355
20:00−13св1197100 0.5 103422
23 января, вс
вс2323:00−13св0197100 0.5 103423
02:00−13ссв0197100 1.1 103326
05:00−13сз1196100 0.5 103336
08:00−13сз2296100 0.8 103342
11:00−11сз2386100 0.2 1033306
14:00−10сз2575100 0.3 1032752
17:00−12зсз2285100 0.0 103338
20:00−14зсз2289100 0.1 103535
24 января, пн
пн2423:00−15зсз2291100 0.0 103644
02:00−15зсз2289100 0.0 103637
05:00−15зсз228995 0.0 103649
08:00−15зсз228998 0.0 103749
11:00−12зсз297843 0.0 1036788
14:00−10сз6107663 0.0 1035884
17:00−14зсз338610 0.0 103653
20:00−20зсз22959 0.0 103913